Location: Mason Neck State Park
(38.6428°N, 77.1981°W)
Time: 09:19:58
(UTC-05:00)

Cosmos 2278 Rocket - Visible Passes

Search period start: 07 December 2016 00:00
Search period end: 17 December 2016 00:00
Orbit: 841 x 845 km, 71.0° (Epoch: 06 December)

Date Brightness Start Highest point End Pass type
(mag) Time Alt. Az. Time Alt. Az. Time Alt. Az.
07 Dec 2.2 17:28:35 10° SSW 17:34:14 85° ESE 17:39:55 10° NNE visible
07 Dec 4.7 19:15:58 10° W 19:19:03 15° NW 19:22:09 10° NNW visible
08 Dec 2.2 17:14:04 10° SSW 17:19:42 81° ESE 17:25:23 10° NNE visible
08 Dec 4.7 19:01:15 10° W 19:04:29 15° NW 19:07:44 10° NNW visible
09 Dec 4.6 18:46:31 10° W 18:49:55 16° NW 18:53:19 10° NNW visible
10 Dec 4.6 18:31:49 10° W 18:35:21 17° NW 18:38:53 10° NNW visible
11 Dec 4.6 18:17:07 10° W 18:20:47 17° NW 18:24:27 10° NNW visible
12 Dec 4.5 18:02:26 10° W 18:06:13 18° NW 18:10:00 10° N visible
13 Dec 4.5 17:47:45 10° W 17:51:39 19° NW 17:55:33 10° N visible
14 Dec 4.4 17:33:05 10° W 17:37:05 19° NW 17:41:06 10° N visible
15 Dec 4.4 17:18:25 10° W 17:22:31 20° NW 17:26:39 10° N visible
